Time,TemperatureF,DewpointF,PressureIn,WindDirection,WindDirectionDegrees,WindSpeedMPH,WindSpeedGustMPH,Humidity,HourlyPrecipIn,Conditions,Clouds,dailyrainin,SoftwareType,DateUTC
2013-09-10 00:00:00,56.5,55.9,29.74,SSW,200,5.0,5.0,98,0.00,,,0.00,Wunderground v.1.15,2013-09-10 07:00:00,
2013-09-10 00:05:00,56.4,55.8,29.74,SSW,203,4.0,5.0,98,0.00,,,0.00,Wunderground v.1.15,2013-09-10 07:05:00,
2013-09-10 00:15:00,56.1,55.5,29.74,SSW,207,6.0,6.0,98,0.00,,,0.00,Wunderground v.1.15,2013-09-10 07:15:00,
2013-09-10 00:20:00,56.2,55.9,29.74,SSW,207,6.0,6.0,99,0.00,,,0.00,Wunderground v.1.15,2013-09-10 07:20:00,
2013-09-10 00:25:00,56.2,55.9,29.74,SSW,207,4.0,6.0,99,0.00,,,0.00,Wunderground v.1.15,2013-09-10 07:25:00,
2013-09-10 00:30:00,56.3,56.0,29.74,SSW,213,4.0,5.0,99,0.00,,,0.00,Wunderground v.1.15,2013-09-10 07:30:00,
2013-09-10 00:40:00,56.5,56.2,29.75,SW,223,5.0,5.0,99,0.00,,,0.00,Wunderground v.1.15,2013-09-10 07:40:00,
2013-09-10 00:45:00,56.7,56.4,29.74,SW,227,4.0,5.0,99,0.00,,,0.00,Wunderground v.1.15,2013-09-10 07:45:00,
2013-09-10 00:50:00,56.8,56.5,29.74,SW,228,4.0,4.0,99,0.00,,,0.00,Wunderground v.1.15,2013-09-10 07:50:00,
2013-09-10 00:55:00,56.9,56.6,29.74,SSW,213,4.0,6.0,99,0.00,,,0.00,Wunderground v.1.15,2013-09-10 07:55:00,
2013-09-10 01:05:00,57.1,56.8,29.75,SSW,196,5.0,10.0,99,0.00,,,0.00,Wunderground v.1.15,2013-09-10 08:05:00,
2013-09-10 01:10:00,56.9,56.6,29.75,SSW,200,6.0,10.0,99,0.00,,,0.00,Wunderground v.1.15,2013-09-10 08:10:00,
2013-09-10 01:15:00,56.8,56.5,29.75,SSW,195,6.0,10.0,99,0.00,,,0.00,Wunderground v.1.15,2013-09-10 08:15:00,
2013-09-10 01:20:00,56.8,56.5,29.75,SSW,205,7.0,7.0,99,0.00,,,0.00,Wunderground v.1.15,2013-09-10 08:20:00,
2013-09-10 01:25:00,56.9,56.6,29.75,SSW,208,6.0,10.0,99,0.00,,,0.00,Wunderground v.1.15,2013-09-10 08:25:00,
2013-09-10 01:30:00,56.8,56.5,29.75,SSW,213,6.0,10.0,99,0.00,,,0.00,Wunderground v.1.15,2013-09-10 08:30:00,
2013-09-10 01:35:00,56.8,56.5,29.75,SW,215,6.0,10.0,99,0.00,,,0.00,Wunderground v.1.15,2013-09-10 08:35:00,
2013-09-10 01:40:00,56.8,56.5,29.75,SSW,204,5.0,10.0,99,0.00,,,0.00,Wunderground v.1.15,2013-09-10 08:40:00,
2013-09-10 01:50:00,56.9,56.6,29.75,SSE,165,6.0,10.0,99,0.00,,,0.00,Wunderground v.1.15,2013-09-10 08:50:00,
2013-09-10 01:55:00,56.9,56.6,29.75,SSE,165,7.0,10.0,99,0.00,,,0.00,Wunderground v.1.15,2013-09-10 08:55:00,
2013-09-10 02:00:00,57.0,56.7,29.75,South,177,6.0,10.0,99,0.00,,,0.00,Wunderground v.1.15,2013-09-10 09:00:00,
2013-09-10 02:05:00,57.1,56.8,29.75,SSW,202,5.0,10.0,99,0.00,,,0.00,Wunderground v.1.15,2013-09-10 09:05:00,
2013-09-10 02:10:00,57.1,56.8,29.75,SSW,202,4.0,10.0,99,0.00,,,0.00,Wunderground v.1.15,2013-09-10 09:10:00,
2013-09-10 02:15:00,57.2,56.9,29.75,SSW,198,4.0,10.0,99,0.00,,,0.00,Wunderground v.1.15,2013-09-10 09:15:00,
2013-09-10 02:20:00,57.3,57.0,29.75,SSW,200,4.0,4.0,99,0.00,,,0.00,Wunderground v.1.15,2013-09-10 09:20:00,
2013-09-10 02:30:00,57.4,57.1,29.75,SSW,201,3.0,10.0,99,0.00,,,0.00,Wunderground v.1.15,2013-09-10 09:30:00,
2013-09-10 02:35:00,57.5,57.2,29.75,SSW,201,3.0,10.0,99,0.00,,,0.00,Wunderground v.1.15,2013-09-10 09:35:00,
2013-09-10 02:40:00,57.5,57.2,29.75,SSW,202,3.0,10.0,99,0.00,,,0.00,Wunderground v.1.15,2013-09-10 09:40:00,
2013-09-10 02:45:00,57.4,57.1,29.75,SSW,202,2.0,10.0,99,0.00,,,0.00,Wunderground v.1.15,2013-09-10 09:45:00,
2013-09-10 02:50:00,57.5,57.2,29.75,SSW,205,3.0,10.0,99,0.00,,,0.00,Wunderground v.1.15,2013-09-10 09:50:00,
2013-09-10 02:55:00,57.5,57.2,29.75,SSW,207,3.0,10.0,99,0.00,,,0.00,Wunderground v.1.15,2013-09-10 09:55:00,
2013-09-10 03:05:00,57.6,57.3,29.75,SSW,207,1.0,10.0,99,0.00,,,0.00,Wunderground v.1.15,2013-09-10 10:05:00,
2013-09-10 03:10:00,57.6,57.3,29.75,SSW,207,1.0,10.0,99,0.00,,,0.00,Wunderground v.1.15,2013-09-10 10:10:00,
2013-09-10 03:15:00,57.6,57.3,29.75,SSW,207,1.0,10.0,99,0.00,,,0.00,Wunderground v.1.15,2013-09-10 10:15:00,
2013-09-10 03:20:00,57.7,57.4,29.75,SSW,207,1.0,1.0,99,0.00,,,0.00,Wunderground v.1.15,2013-09-10 10:20:00,
2013-09-10 03:25:00,57.7,57.4,29.75,SSW,207,1.0,10.0,99,0.00,,,0.00,Wunderground v.1.15,2013-09-10 10:25:00,
2013-09-10 03:30:00,57.7,57.4,29.75,SSW,207,2.0,10.0,99,0.00,,,0.00,Wunderground v.1.15,2013-09-10 10:30:00,
2013-09-10 03:35:00,57.8,57.5,29.75,SSW,207,2.0,10.0,99,0.00,,,0.00,Wunderground v.1.15,2013-09-10 10:35:00,
2013-09-10 03:45:00,57.9,57.6,29.75,SSW,207,2.0,10.0,99,0.00,,,0.00,Wunderground v.1.15,2013-09-10 10:45:00,
2013-09-10 03:50:00,58.0,57.7,29.75,SSW,207,2.0,2.0,99,0.00,,,0.00,Wunderground v.1.15,2013-09-10 10:50:00,
2013-09-10 03:55:00,58.0,57.7,29.75,SSW,207,1.0,10.0,99,0.00,,,0.00,Wunderground v.1.15,2013-09-10 10:55:00,
2013-09-10 04:00:00,58.1,57.8,29.75,SSW,207,0.0,10.0,99,0.00,,,0.00,Wunderground v.1.15,2013-09-10 11:00:00,
2013-09-10 04:05:00,58.2,57.9,29.75,SSW,198,2.0,10.0,99,0.00,,,0.00,Wunderground v.1.15,2013-09-10 11:05:00,
2013-09-10 04:10:00,58.2,57.9,29.76,SSW,197,3.0,3.0,99,0.00,,,0.00,Wunderground v.1.15,2013-09-10 11:10:00,
2013-09-10 04:20:00,58.1,57.8,29.75,South,189,2.0,10.0,99,0.00,,,0.00,Wunderground v.1.15,2013-09-10 11:20:00,
2013-09-10 04:25:00,58.0,57.7,29.76,South,180,4.0,10.0,99,0.00,,,0.00,Wunderground v.1.15,2013-09-10 11:25:00,
2013-09-10 04:30:00,58.1,57.8,29.76,South,180,4.0,10.0,99,0.00,,,0.00,Wunderground v.1.15,2013-09-10 11:30:00,
2013-09-10 04:35:00,58.1,57.8,29.76,South,186,2.0,10.0,99,0.00,,,0.00,Wunderground v.1.15,2013-09-10 11:35:00,
2013-09-10 04:40:00,58.1,57.8,29.76,South,188,1.0,10.0,99,0.00,,,0.00,Wunderground v.1.15,2013-09-10 11:40:00,
2013-09-10 04:45:00,58.1,57.8,29.76,South,188,2.0,10.0,99,0.00,,,0.00,Wunderground v.1.15,2013-09-10 11:45:00,
2013-09-10 04:50:00,58.2,57.9,29.76,South,188,2.0,2.0,99,0.00,,,0.00,Wunderground v.1.15,2013-09-10 11:50:00,
2013-09-10 05:00:00,58.2,57.9,29.76,South,188,1.0,1.0,99,0.00,,,0.00,Wunderground v.1.15,2013-09-10 12:00:00,
2013-09-10 05:05:00,58.2,57.9,29.76,South,188,1.0,4.0,99,0.00,,,0.00,Wunderground v.1.15,2013-09-10 12:05:00,
2013-09-10 05:10:00,58.2,57.9,29.76,South,188,1.0,1.0,99,0.00,,,0.00,Wunderground v.1.15,2013-09-10 12:10:00,
2013-09-10 05:15:00,58.2,57.9,29.76,South,188,1.0,10.0,99,0.00,,,0.00,Wunderground v.1.15,2013-09-10 12:15:00,
2013-09-10 05:20:00,58.3,58.0,29.76,South,188,0.0,10.0,99,0.00,,,0.00,Wunderground v.1.15,2013-09-10 12:20:00,
2013-09-10 05:30:00,58.4,58.1,29.76,South,188,1.0,10.0,99,0.00,,,0.00,Wunderground v.1.15,2013-09-10 12:30:00,
2013-09-10 05:35:00,58.3,58.0,29.76,South,188,2.0,10.0,99,0.00,,,0.00,Wunderground v.1.15,2013-09-10 12:35:00,
2013-09-10 05:40:00,58.4,58.1,29.76,South,188,2.0,2.0,99,0.00,,,0.00,Wunderground v.1.15,2013-09-10 12:40:00,
2013-09-10 05:45:00,58.4,58.1,29.76,South,188,2.0,10.0,99,0.00,,,0.00,Wunderground v.1.15,2013-09-10 12:45:00,
2013-09-10 05:50:00,58.5,58.2,29.76,South,188,1.0,1.0,99,0.00,,,0.00,Wunderground v.1.15,2013-09-10 12:50:00,
2013-09-10 06:00:00,58.5,58.2,29.76,South,188,1.0,1.0,99,0.00,,,0.00,Wunderground v.1.15,2013-09-10 13:00:00,
2013-09-10 06:05:00,58.5,58.2,29.77,South,188,0.0,10.0,99,0.00,,,0.00,Wunderground v.1.15,2013-09-10 13:05:00,
2013-09-10 06:10:00,58.6,58.3,29.77,South,188,1.0,10.0,99,0.00,,,0.00,Wunderground v.1.15,2013-09-10 13:10:00,
2013-09-10 06:15:00,58.6,58.3,29.77,South,188,2.0,10.0,99,0.00,,,0.00,Wunderground v.1.15,2013-09-10 13:15:00,
2013-09-10 06:20:00,58.7,58.4,29.77,South,188,1.0,1.0,99,0.00,,,0.00,Wunderground v.1.15,2013-09-10 13:20:00,
2013-09-10 06:30:00,58.8,58.2,29.77,South,188,0.0,10.0,98,0.00,,,0.00,Wunderground v.1.15,2013-09-10 13:30:00,
2013-09-10 06:35:00,58.8,58.2,29.77,South,188,1.0,10.0,98,0.00,,,0.00,Wunderground v.1.15,2013-09-10 13:35:00,
2013-09-10 06:40:00,58.9,58.3,29.78,South,188,0.0,10.0,98,0.00,,,0.00,Wunderground v.1.15,2013-09-10 13:40:00,
2013-09-10 06:45:00,58.9,58.3,29.78,South,188,0.0,10.0,98,0.00,,,0.00,Wunderground v.1.15,2013-09-10 13:45:00,
2013-09-10 06:55:00,58.9,58.3,29.78,South,189,0.0,10.0,98,0.00,,,0.00,Wunderground v.1.15,2013-09-10 13:55:00,
2013-09-10 07:00:00,59.0,58.2,29.78,South,189,0.0,10.0,97,0.00,,,0.00,Wunderground v.1.15,2013-09-10 14:00:00,
2013-09-10 07:05:00,59.0,58.2,29.78,South,189,0.0,10.0,97,0.00,,,0.00,Wunderground v.1.15,2013-09-10 14:05:00,
2013-09-10 07:10:00,59.0,58.2,29.79,South,189,0.0,10.0,97,0.00,,,0.00,Wunderground v.1.15,2013-09-10 14:10:00,
2013-09-10 07:15:00,59.0,58.2,29.79,South,189,0.0,10.0,97,0.00,,,0.00,Wunderground v.1.15,2013-09-10 14:15:00,
2013-09-10 07:25:00,59.2,58.3,29.79,South,189,0.0,10.0,97,0.00,,,0.00,Wunderground v.1.15,2013-09-10 14:25:00,
2013-09-10 07:30:00,59.3,58.4,29.79,South,185,0.0,10.0,97,0.00,,,0.00,Wunderground v.1.15,2013-09-10 14:30:00,
2013-09-10 07:35:00,59.3,58.4,29.79,South,185,1.0,10.0,97,0.00,,,0.00,Wunderground v.1.15,2013-09-10 14:35:00,
2013-09-10 07:40:00,59.3,58.4,29.80,South,185,1.0,1.0,97,0.00,,,0.00,Wunderground v.1.15,2013-09-10 14:40:00,
2013-09-10 07:45:00,59.5,58.4,29.80,South,186,2.0,2.0,96,0.00,,,0.00,Wunderground v.1.15,2013-09-10 14:45:00,
2013-09-10 07:55:00,59.7,58.6,29.80,SSW,199,1.0,2.0,96,0.00,,,0.00,Wunderground v.1.15,2013-09-10 14:55:00,
2013-09-10 08:00:00,59.8,58.7,29.80,South,188,1.0,10.0,96,0.00,,,0.00,Wunderground v.1.15,2013-09-10 15:00:00,
2013-09-10 08:05:00,59.9,58.5,29.80,SE,126,2.0,10.0,95,0.00,,,0.00,Wunderground v.1.15,2013-09-10 15:05:00,
2013-09-10 08:10:00,59.9,58.8,29.80,South,173,2.0,2.0,96,0.00,,,0.00,Wunderground v.1.15,2013-09-10 15:10:00,
2013-09-10 08:15:00,59.9,58.8,29.80,South,173,1.0,10.0,96,0.00,,,0.00,Wunderground v.1.15,2013-09-10 15:15:00,
2013-09-10 08:25:00,60.1,59.0,29.80,South,174,2.0,10.0,96,0.00,,,0.00,Wunderground v.1.15,2013-09-10 15:25:00,
2013-09-10 08:30:00,60.1,59.0,29.80,South,174,3.0,3.0,96,0.00,,,0.00,Wunderground v.1.15,2013-09-10 15:30:00,
2013-09-10 08:35:00,60.2,58.8,29.80,South,173,2.0,5.0,95,0.00,,,0.00,Wunderground v.1.15,2013-09-10 15:35:00,
2013-09-10 08:40:00,60.3,59.2,29.80,SSW,205,2.0,2.0,96,0.00,,,0.00,Wunderground v.1.15,2013-09-10 15:40:00,
2013-09-10 08:45:00,60.4,59.3,29.81,South,179,2.0,4.0,96,0.00,,,0.00,Wunderground v.1.15,2013-09-10 15:45:00,
2013-09-10 08:55:00,60.2,59.1,29.81,SSE,159,2.0,10.0,96,0.00,,,0.00,Wunderground v.1.15,2013-09-10 15:55:00,
2013-09-10 09:00:00,60.2,59.1,29.81,SSE,159,2.0,2.0,96,0.00,,,0.00,Wunderground v.1.15,2013-09-10 16:00:00,
2013-09-10 09:05:00,60.4,59.3,29.81,SSE,159,1.0,10.0,96,0.00,,,0.00,Wunderground v.1.15,2013-09-10 16:05:00,
2013-09-10 09:15:00,60.5,59.1,29.81,SSE,161,2.0,2.0,95,0.00,,,0.00,Wunderground v.1.15,2013-09-10 16:15:00,
2013-09-10 09:20:00,60.6,59.2,29.81,SE,145,1.0,1.0,95,0.00,,,0.00,Wunderground v.1.15,2013-09-10 16:20:00,
2013-09-10 09:25:00,60.8,59.1,29.81,SE,145,0.0,10.0,94,0.00,,,0.00,Wunderground v.1.15,2013-09-10 16:25:00,
2013-09-10 09:30:00,61.0,59.3,29.81,SE,145,0.0,10.0,94,0.00,,,0.00,Wunderground v.1.15,2013-09-10 16:30:00,
2013-09-10 09:40:00,61.3,59.3,29.82,SE,145,0.0,10.0,93,0.00,,,0.00,Wunderground v.1.15,2013-09-10 16:40:00,
2013-09-10 09:45:00,61.4,59.1,29.82,SE,145,0.0,10.0,92,0.00,,,0.00,Wunderground v.1.15,2013-09-10 16:45:00,
2013-09-10 09:50:00,61.7,59.0,29.82,SE,144,0.0,10.0,91,0.00,,,0.00,Wunderground v.1.15,2013-09-10 16:50:00,
2013-09-10 09:55:00,62.1,59.4,29.82,SE,143,1.0,10.0,91,0.00,,,0.00,Wunderground v.1.15,2013-09-10 16:55:00,
2013-09-10 10:00:00,62.3,59.3,29.82,SE,143,1.0,1.0,90,0.00,,,0.00,Wunderground v.1.15,2013-09-10 17:00:00,
2013-09-10 10:10:00,62.6,59.3,29.82,ESE,111,1.0,1.0,89,0.00,,,0.00,Wunderground v.1.15,2013-09-10 17:10:00,
2013-09-10 10:15:00,62.7,59.4,29.82,SSE,149,0.0,10.0,89,0.00,,,0.00,Wunderground v.1.15,2013-09-10 17:15:00,
2013-09-10 10:20:00,63.1,59.5,29.82,South,175,2.0,10.0,88,0.00,,,0.00,Wunderground v.1.15,2013-09-10 17:20:00,
2013-09-10 10:25:00,63.6,59.3,29.82,South,183,3.0,10.0,86,0.00,,,0.00,Wunderground v.1.15,2013-09-10 17:25:00,
2013-09-10 10:30:00,63.8,59.5,29.82,SSW,207,4.0,10.0,86,0.00,,,0.00,Wunderground v.1.15,2013-09-10 17:30:00,
2013-09-10 10:40:00,64.2,59.6,29.82,SW,220,3.0,3.0,85,0.00,,,0.00,Wunderground v.1.15,2013-09-10 17:40:00,
2013-09-10 10:45:00,64.9,60.3,29.82,SW,223,3.0,5.0,85,0.00,,,0.00,Wunderground v.1.15,2013-09-10 17:45:00,
2013-09-10 10:50:00,65.1,60.1,29.82,SW,227,2.0,10.0,84,0.00,,,0.00,Wunderground v.1.15,2013-09-10 17:50:00,
2013-09-10 11:00:00,66.0,60.7,29.82,South,186,5.0,5.0,83,0.00,,,0.00,Wunderground v.1.15,2013-09-10 18:00:00,
2013-09-10 11:05:00,65.8,60.5,29.82,WSW,254,5.0,10.0,83,0.00,,,0.00,Wunderground v.1.15,2013-09-10 18:05:00,
2013-09-10 11:10:00,66.4,60.7,29.82,SW,225,5.0,10.0,82,0.00,,,0.00,Wunderground v.1.15,2013-09-10 18:10:00,
2013-09-10 11:15:00,66.3,60.3,29.82,SSW,207,6.0,10.0,81,0.00,,,0.00,Wunderground v.1.15,2013-09-10 18:15:00,
2013-09-10 11:25:00,66.9,60.5,29.82,SSW,202,5.0,10.0,80,0.00,,,0.00,Wunderground v.1.15,2013-09-10 18:25:00,
2013-09-10 11:30:00,67.0,60.6,29.82,West,263,5.0,10.0,80,0.00,,,0.00,Wunderground v.1.15,2013-09-10 18:30:00,
2013-09-10 11:40:00,67.6,60.9,29.82,WSW,239,6.0,6.0,79,0.00,,,0.00,Wunderground v.1.15,2013-09-10 18:40:00,
2013-09-10 11:45:00,68.2,61.1,29.82,WSW,239,5.0,10.0,78,0.00,,,0.00,Wunderground v.1.15,2013-09-10 18:45:00,
2013-09-10 11:50:00,68.8,60.9,29.82,SW,217,6.0,6.0,76,0.00,,,0.00,Wunderground v.1.15,2013-09-10 18:50:00,
2013-09-10 11:55:00,69.4,61.1,29.82,SSW,212,6.0,10.0,75,0.00,,,0.00,Wunderground v.1.15,2013-09-10 18:55:00,
2013-09-10 12:05:00,69.9,61.2,29.82,SSW,205,6.0,10.0,74,0.00,,,0.00,Wunderground v.1.15,2013-09-10 19:05:00,
2013-09-10 12:10:00,69.7,60.7,29.83,South,171,7.0,7.0,73,0.00,,,0.00,Wunderground v.1.15,2013-09-10 19:10:00,
2013-09-10 12:15:00,70.4,61.3,29.83,South,185,6.0,10.0,73,0.00,,,0.00,Wunderground v.1.15,2013-09-10 19:15:00,
2013-09-10 12:20:00,70.5,61.0,29.83,South,174,6.0,10.0,72,0.00,,,0.00,Wunderground v.1.15,2013-09-10 19:20:00,
2013-09-10 12:30:00,70.2,60.7,29.83,SSW,211,8.0,8.0,72,0.00,,,0.00,Wunderground v.1.15,2013-09-10 19:30:00,
2013-09-10 12:35:00,70.8,60.5,29.83,South,190,8.0,11.0,70,0.00,,,0.00,Wunderground v.1.15,2013-09-10 19:35:00,
2013-09-10 12:40:00,70.4,60.5,29.83,SSE,167,9.0,9.0,71,0.00,,,0.00,Wunderground v.1.15,2013-09-10 19:40:00,
2013-09-10 12:45:00,70.8,60.9,29.83,South,189,8.0,10.0,71,0.00,,,0.00,Wunderground v.1.15,2013-09-10 19:45:00,
2013-09-10 12:55:00,70.1,60.3,29.83,SSE,160,9.0,14.0,71,0.00,,,0.00,Wunderground v.1.15,2013-09-10 19:55:00,
2013-09-10 13:00:00,69.8,60.4,29.83,South,178,9.0,10.0,72,0.00,,,0.00,Wunderground v.1.15,2013-09-10 20:00:00,
2013-09-10 13:05:00,70.0,60.6,29.83,SSW,198,9.0,12.0,72,0.00,,,0.00,Wunderground v.1.15,2013-09-10 20:05:00,
2013-09-10 13:10:00,70.1,60.3,29.83,SSE,150,9.0,10.0,71,0.00,,,0.00,Wunderground v.1.15,2013-09-10 20:10:00,
2013-09-10 13:20:00,70.3,60.8,29.83,South,190,9.0,9.0,72,0.00,,,0.00,Wunderground v.1.15,2013-09-10 20:20:00,
2013-09-10 13:25:00,70.3,60.4,29.82,SW,222,8.0,11.0,71,0.00,,,0.00,Wunderground v.1.15,2013-09-10 20:25:00,
2013-09-10 13:30:00,70.1,60.7,29.83,South,186,9.0,12.0,72,0.00,,,0.00,Wunderground v.1.15,2013-09-10 20:30:00,
2013-09-10 13:35:00,70.6,61.1,29.83,SSW,192,9.0,12.0,72,0.00,,,0.00,Wunderground v.1.15,2013-09-10 20:35:00,
2013-09-10 13:45:00,69.4,60.8,29.83,South,187,10.0,12.0,74,0.00,,,0.00,Wunderground v.1.15,2013-09-10 20:45:00,
2013-09-10 13:50:00,69.5,60.8,29.83,SSE,148,10.0,10.0,74,0.00,,,0.00,Wunderground v.1.15,2013-09-10 20:50:00,
2013-09-10 14:00:00,69.5,60.8,29.83,SSW,192,10.0,10.0,74,0.00,,,0.00,Wunderground v.1.15,2013-09-10 21:00:00,
2013-09-10 14:05:00,69.2,60.6,29.83,SSW,205,10.0,11.0,74,0.00,,,0.00,Wunderground v.1.15,2013-09-10 21:05:00,
2013-09-10 14:10:00,69.1,60.8,29.83,South,178,10.0,10.0,75,0.00,,,0.00,Wunderground v.1.15,2013-09-10 21:10:00,
2013-09-10 14:15:00,69.4,61.1,29.83,SE,146,9.0,13.0,75,0.00,,,0.00,Wunderground v.1.15,2013-09-10 21:15:00,
2013-09-10 14:25:00,69.0,60.4,29.83,South,190,10.0,10.0,74,0.00,,,0.00,Wunderground v.1.15,2013-09-10 21:25:00,
2013-09-10 14:30:00,68.7,60.1,29.83,SSW,195,11.0,11.0,74,0.00,,,0.00,Wunderground v.1.15,2013-09-10 21:30:00,
2013-09-10 14:35:00,68.5,60.6,29.83,South,186,11.0,11.0,76,0.00,,,0.00,Wunderground v.1.15,2013-09-10 21:35:00,
2013-09-10 14:40:00,68.2,60.0,29.83,South,173,11.0,14.0,75,0.00,,,0.00,Wunderground v.1.15,2013-09-10 21:40:00,
2013-09-10 14:45:00,68.3,60.4,29.83,South,173,11.0,14.0,76,0.00,,,0.00,Wunderground v.1.15,2013-09-10 21:45:00,
2013-09-10 14:55:00,67.8,60.3,29.83,SSW,197,12.0,15.0,77,0.00,,,0.00,Wunderground v.1.15,2013-09-10 21:55:00,
2013-09-10 15:00:00,67.6,60.5,29.84,South,181,12.0,14.0,78,0.00,,,0.00,Wunderground v.1.15,2013-09-10 22:00:00,
2013-09-10 15:05:00,67.7,60.6,29.84,South,178,11.0,14.0,78,0.00,,,0.00,Wunderground v.1.15,2013-09-10 22:05:00,
2013-09-10 15:15:00,67.2,60.5,29.84,South,173,10.0,10.0,79,0.00,,,0.00,Wunderground v.1.15,2013-09-10 22:15:00,
2013-09-10 15:20:00,67.4,60.3,29.84,SSE,165,8.0,8.0,78,0.00,,,0.00,Wunderground v.1.15,2013-09-10 22:20:00,
2013-09-10 15:25:00,67.0,60.3,29.84,SSE,156,8.0,9.0,79,0.00,,,0.00,Wunderground v.1.15,2013-09-10 22:25:00,
2013-09-10 15:30:00,66.4,60.0,29.84,SSW,210,10.0,10.0,80,0.00,,,0.00,Wunderground v.1.15,2013-09-10 22:30:00,
2013-09-10 15:35:00,66.3,60.3,29.84,SSW,201,9.0,10.0,81,0.00,,,0.00,Wunderground v.1.15,2013-09-10 22:35:00,
2013-09-10 15:45:00,66.0,60.0,29.84,SSE,165,7.0,10.0,81,0.00,,,0.00,Wunderground v.1.15,2013-09-10 22:45:00,
2013-09-10 15:50:00,65.8,60.2,29.84,South,172,8.0,8.0,82,0.00,,,0.00,Wunderground v.1.15,2013-09-10 22:50:00,
2013-09-10 15:55:00,65.4,60.1,29.84,South,190,8.0,11.0,83,0.00,,,0.00,Wunderground v.1.15,2013-09-10 22:55:00,
2013-09-10 16:00:00,64.9,59.9,29.84,SSW,203,8.0,8.0,84,0.00,,,0.00,Wunderground v.1.15,2013-09-10 23:00:00,
2013-09-10 16:10:00,65.0,59.7,29.84,SSW,194,5.0,10.0,83,0.00,,,0.00,Wunderground v.1.15,2013-09-10 23:10:00,
2013-09-10 16:15:00,64.8,59.9,29.84,SSE,165,7.0,10.0,84,0.00,,,0.00,Wunderground v.1.15,2013-09-10 23:15:00,
2013-09-10 16:20:00,64.8,59.9,29.84,South,169,7.0,10.0,84,0.00,,,0.00,Wunderground v.1.15,2013-09-10 23:20:00,
2013-09-10 16:25:00,64.6,60.0,29.84,South,186,6.0,10.0,85,0.00,,,0.00,Wunderground v.1.15,2013-09-10 23:25:00,
2013-09-10 16:35:00,64.4,59.8,29.84,SSE,157,8.0,11.0,85,0.00,,,0.00,Wunderground v.1.15,2013-09-10 23:35:00,
2013-09-10 16:40:00,64.5,59.9,29.84,SSE,163,7.0,10.0,85,0.00,,,0.00,Wunderground v.1.15,2013-09-10 23:40:00,
2013-09-10 16:45:00,64.7,59.8,29.84,South,172,6.0,10.0,84,0.00,,,0.00,Wunderground v.1.15,2013-09-10 23:45:00,
2013-09-10 16:50:00,64.6,60.0,29.84,SE,146,7.0,7.0,85,0.00,,,0.00,Wunderground v.1.15,2013-09-10 23:50:00,
2013-09-10 16:55:00,64.3,60.0,29.84,SSE,156,7.0,10.0,86,0.00,,,0.00,Wunderground v.1.15,2013-09-10 23:55:00,
2013-09-10 17:05:00,63.8,59.9,29.84,SSE,160,6.0,10.0,87,0.00,,,0.00,Wunderground v.1.15,2013-09-11 00:05:00,
2013-09-10 17:10:00,63.8,59.9,29.84,SSE,166,6.0,10.0,87,0.00,,,0.00,Wunderground v.1.15,2013-09-11 00:10:00,
2013-09-10 17:15:00,63.7,59.8,29.84,South,184,6.0,10.0,87,0.00,,,0.00,Wunderground v.1.15,2013-09-11 00:15:00,
2013-09-10 17:20:00,63.6,60.0,29.84,South,180,6.0,10.0,88,0.00,,,0.00,Wunderground v.1.15,2013-09-11 00:20:00,
2013-09-10 17:30:00,63.2,59.6,29.84,South,183,6.0,10.0,88,0.00,,,0.00,Wunderground v.1.15,2013-09-11 00:30:00,
2013-09-10 17:35:00,62.9,59.6,29.85,SSE,159,7.0,10.0,89,0.00,,,0.00,Wunderground v.1.15,2013-09-11 00:35:00,
2013-09-10 17:40:00,62.8,59.5,29.84,SSE,165,7.0,7.0,89,0.00,,,0.00,Wunderground v.1.15,2013-09-11 00:40:00,
2013-09-10 17:45:00,62.8,59.5,29.85,South,175,6.0,10.0,89,0.00,,,0.00,Wunderground v.1.15,2013-09-11 00:45:00,
2013-09-10 17:50:00,62.8,59.8,29.85,South,173,5.0,10.0,90,0.00,,,0.00,Wunderground v.1.15,2013-09-11 00:50:00,
2013-09-10 18:00:00,62.5,59.5,29.85,South,178,5.0,5.0,90,0.00,,,0.00,Wunderground v.1.15,2013-09-11 01:00:00,
2013-09-10 18:05:00,62.5,59.5,29.85,South,176,5.0,10.0,90,0.00,,,0.00,Wunderground v.1.15,2013-09-11 01:05:00,
2013-09-10 18:10:00,62.5,59.5,29.85,South,178,5.0,5.0,90,0.00,,,0.00,Wunderground v.1.15,2013-09-11 01:10:00,
2013-09-10 18:20:00,62.5,59.5,29.85,South,190,4.0,10.0,90,0.00,,,0.00,Wunderground v.1.15,2013-09-11 01:20:00,
2013-09-10 18:25:00,62.5,59.5,29.85,South,169,5.0,10.0,90,0.00,,,0.00,Wunderground v.1.15,2013-09-11 01:25:00,
2013-09-10 18:30:00,62.3,59.6,29.85,South,177,5.0,5.0,91,0.00,,,0.00,Wunderground v.1.15,2013-09-11 01:30:00,
2013-09-10 18:35:00,62.2,59.5,29.85,South,181,5.0,10.0,91,0.00,,,0.00,Wunderground v.1.15,2013-09-11 01:35:00,
2013-09-10 18:40:00,62.2,59.5,29.85,South,180,4.0,10.0,91,0.00,,,0.00,Wunderground v.1.15,2013-09-11 01:40:00,
2013-09-10 18:45:00,62.2,59.5,29.85,South,180,4.0,10.0,91,0.00,,,0.00,Wunderground v.1.15,2013-09-11 01:45:00,
2013-09-10 18:55:00,62.2,59.8,29.85,South,185,3.0,10.0,92,0.00,,,0.00,Wunderground v.1.15,2013-09-11 01:55:00,
2013-09-10 19:00:00,62.1,59.7,29.85,South,184,3.0,10.0,92,0.00,,,0.00,Wunderground v.1.15,2013-09-11 02:00:00,
2013-09-10 19:05:00,62.0,59.6,29.85,South,184,3.0,10.0,92,0.00,,,0.00,Wunderground v.1.15,2013-09-11 02:05:00,
2013-09-10 19:10:00,61.9,59.5,29.85,South,184,3.0,3.0,92,0.00,,,0.00,Wunderground v.1.15,2013-09-11 02:10:00,
2013-09-10 19:15:00,61.8,59.5,29.85,South,184,3.0,10.0,92,0.00,,,0.00,Wunderground v.1.15,2013-09-11 02:15:00,
2013-09-10 19:20:00,61.8,59.8,29.85,South,184,2.0,10.0,93,0.00,,,0.00,Wunderground v.1.15,2013-09-11 02:20:00,
2013-09-10 19:30:00,61.7,59.7,29.85,South,182,3.0,3.0,93,0.00,,,0.00,Wunderground v.1.15,2013-09-11 02:30:00,
2013-09-10 19:35:00,61.6,59.6,29.86,South,182,2.0,10.0,93,0.00,,,0.00,Wunderground v.1.15,2013-09-11 02:35:00,
2013-09-10 19:40:00,61.5,59.5,29.86,South,182,2.0,2.0,93,0.00,,,0.00,Wunderground v.1.15,2013-09-11 02:40:00,
2013-09-10 19:45:00,61.4,59.7,29.86,South,175,2.0,6.0,94,0.00,,,0.00,Wunderground v.1.15,2013-09-11 02:45:00,
2013-09-10 19:50:00,61.3,59.6,29.86,South,173,2.0,10.0,94,0.00,,,0.00,Wunderground v.1.15,2013-09-11 02:50:00,
2013-09-10 19:55:00,61.2,59.5,29.86,South,173,3.0,10.0,94,0.00,,,0.00,Wunderground v.1.15,2013-09-11 02:55:00,
2013-09-10 20:05:00,61.1,59.4,29.86,South,172,1.0,10.0,94,0.00,,,0.00,Wunderground v.1.15,2013-09-11 03:05:00,
2013-09-10 20:10:00,61.1,59.4,29.86,South,172,2.0,2.0,94,0.00,,,0.00,Wunderground v.1.15,2013-09-11 03:10:00,
2013-09-10 20:15:00,61.1,59.4,29.86,South,173,2.0,10.0,94,0.00,,,0.00,Wunderground v.1.15,2013-09-11 03:15:00,
2013-09-10 20:20:00,61.1,59.4,29.87,South,172,2.0,10.0,94,0.00,,,0.00,Wunderground v.1.15,2013-09-11 03:20:00,
2013-09-10 20:25:00,61.2,59.5,29.87,South,172,1.0,10.0,94,0.00,,,0.00,Wunderground v.1.15,2013-09-11 03:25:00,
2013-09-10 20:30:00,61.1,59.4,29.87,South,171,1.0,10.0,94,0.00,,,0.00,Wunderground v.1.15,2013-09-11 03:30:00,
2013-09-10 20:40:00,61.2,59.5,29.88,South,171,2.0,2.0,94,0.00,,,0.00,Wunderground v.1.15,2013-09-11 03:40:00,
2013-09-10 20:45:00,61.3,59.6,29.88,South,171,1.0,10.0,94,0.00,,,0.00,Wunderground v.1.15,2013-09-11 03:45:00,
2013-09-10 20:50:00,61.3,59.6,29.88,South,171,1.0,10.0,94,0.00,,,0.00,Wunderground v.1.15,2013-09-11 03:50:00,
2013-09-10 20:55:00,61.3,59.6,29.88,South,171,1.0,10.0,94,0.00,,,0.00,Wunderground v.1.15,2013-09-11 03:55:00,
2013-09-10 21:05:00,61.3,59.9,29.88,South,171,1.0,10.0,95,0.00,,,0.00,Wunderground v.1.15,2013-09-11 04:05:00,
2013-09-10 21:10:00,61.2,59.8,29.89,South,171,0.0,10.0,95,0.00,,,0.00,Wunderground v.1.15,2013-09-11 04:10:00,
2013-09-10 21:15:00,61.2,59.8,29.89,South,171,0.0,10.0,95,0.00,,,0.00,Wunderground v.1.15,2013-09-11 04:15:00,
2013-09-10 21:20:00,61.1,59.7,29.89,South,171,0.0,10.0,95,0.00,,,0.00,Wunderground v.1.15,2013-09-11 04:20:00,
2013-09-10 21:25:00,61.1,60.0,29.89,South,171,0.0,10.0,96,0.00,,,0.00,Wunderground v.1.15,2013-09-11 04:25:00,
2013-09-10 21:35:00,61.1,60.0,29.89,South,171,0.0,10.0,96,0.00,,,0.00,Wunderground v.1.15,2013-09-11 04:35:00,
2013-09-10 21:40:00,61.1,60.0,29.89,South,171,0.0,10.0,96,0.00,,,0.00,Wunderground v.1.15,2013-09-11 04:40:00,
2013-09-10 21:45:00,61.1,60.0,29.89,South,171,0.0,10.0,96,0.00,,,0.00,Wunderground v.1.15,2013-09-11 04:45:00,
2013-09-10 21:50:00,61.2,60.1,29.89,South,171,0.0,10.0,96,0.00,,,0.00,Wunderground v.1.15,2013-09-11 04:50:00,
2013-09-10 21:55:00,61.2,60.1,29.89,South,171,1.0,10.0,96,0.00,,,0.00,Wunderground v.1.15,2013-09-11 04:55:00,
2013-09-10 22:00:00,61.2,60.1,29.89,South,171,1.0,1.0,96,0.00,,,0.00,Wunderground v.1.15,2013-09-11 05:00:00,
2013-09-10 22:10:00,61.2,60.1,29.89,South,171,1.0,1.0,96,0.00,,,0.00,Wunderground v.1.15,2013-09-11 05:10:00,
2013-09-10 22:15:00,61.2,60.1,29.89,South,171,1.0,10.0,96,0.00,,,0.00,Wunderground v.1.15,2013-09-11 05:15:00,
2013-09-10 22:20:00,61.3,60.2,29.90,South,171,0.0,10.0,96,0.00,,,0.00,Wunderground v.1.15,2013-09-11 05:20:00,
2013-09-10 22:25:00,61.2,60.1,29.90,South,171,0.0,10.0,96,0.00,,,0.00,Wunderground v.1.15,2013-09-11 05:25:00,
2013-09-10 22:30:00,61.2,60.3,29.89,South,171,0.0,10.0,97,0.00,,,0.00,Wunderground v.1.15,2013-09-11 05:30:00,
2013-09-10 22:35:00,61.2,60.3,29.90,South,171,0.0,10.0,97,0.00,,,0.00,Wunderground v.1.15,2013-09-11 05:35:00,
2013-09-10 22:40:00,61.2,60.3,29.90,South,171,0.0,10.0,97,0.00,,,0.00,Wunderground v.1.15,2013-09-11 05:40:00,
2013-09-10 22:50:00,61.2,60.3,29.90,South,171,0.0,10.0,97,0.00,,,0.00,Wunderground v.1.15,2013-09-11 05:50:00,
2013-09-10 22:55:00,61.1,60.2,29.90,South,171,0.0,10.0,97,0.00,,,0.00,Wunderground v.1.15,2013-09-11 05:55:00,
2013-09-10 23:00:00,61.1,60.2,29.90,South,171,0.0,10.0,97,0.00,,,0.00,Wunderground v.1.15,2013-09-11 06:00:00,
2013-09-10 23:05:00,61.2,60.3,29.90,South,171,0.0,10.0,97,0.00,,,0.00,Wunderground v.1.15,2013-09-11 06:05:00,
2013-09-10 23:15:00,61.2,60.3,29.90,South,171,0.0,10.0,97,0.00,,,0.00,Wunderground v.1.15,2013-09-11 06:15:00,
2013-09-10 23:20:00,61.2,60.3,29.90,South,171,0.0,10.0,97,0.00,,,0.00,Wunderground v.1.15,2013-09-11 06:20:00,
2013-09-10 23:25:00,61.2,60.3,29.90,South,171,0.0,10.0,97,0.00,,,0.00,Wunderground v.1.15,2013-09-11 06:25:00,
2013-09-10 23:30:00,61.3,60.4,29.90,South,171,0.0,10.0,97,0.00,,,0.00,Wunderground v.1.15,2013-09-11 06:30:00,
2013-09-10 23:40:00,61.3,60.4,29.90,South,171,0.0,10.0,97,0.00,,,0.00,Wunderground v.1.15,2013-09-11 06:40:00,
2013-09-10 23:45:00,61.3,60.4,29.90,South,171,0.0,10.0,97,0.00,,,0.00,Wunderground v.1.15,2013-09-11 06:45:00,
2013-09-10 23:50:00,61.3,60.4,29.90,South,171,0.0,10.0,97,0.00,,,0.00,Wunderground v.1.15,2013-09-11 06:50:00,
2013-09-10 23:55:00,61.3,60.2,29.90,South,171,0.0,10.0,96,0.00,,,0.00,Wunderground v.1.15,2013-09-11 06:55:00,